Location: Newark
(37.9844°N, 120.3817°W)
Time: 10:14:55
(UTC+00:00)

ISS - Visible Passes

Search period start: 19 July 2019 00:00
Search period end: 29 July 2019 00:00
Orbit: 409 x 418 km, 51.6° (Epoch: 19 July)

Date Brightness Start Highest point End Pass type
(mag) Time Alt. Az. Time Alt. Az. Time Alt. Az.
19 Jul -2.5 04:44:29 10° WSW 04:47:41 43° NW 04:50:54 10° NE visible
19 Jul -0.2 06:23:54 10° NW 06:25:03 11° NNW 06:26:13 10° N visible
19 Jul -0.8 09:38:30 10° NNW 09:40:51 18° NNE 09:43:12 10° ENE visible
19 Jul -4.0 11:14:32 10° NW 11:17:49 68° SW 11:21:05 10° SE visible
20 Jul -3.6 03:55:02 10° SW 03:58:22 80° NW 04:01:43 10° NE visible
20 Jul -0.5 05:33:31 10° WNW 05:35:30 15° NNW 05:37:30 10° NNE visible
20 Jul -0.4 08:49:38 10° N 08:51:10 13° NNE 08:51:10 13° NNE visible
20 Jul-0.110:33:23ESE10:33:23ESE10:23:48NWvisible
21 Jul -0.9 04:43:25 10° WNW 04:46:00 20° NNW 04:48:35 10° NNE visible
21 Jul -0.2 08:01:06 10° N 08:01:44 10° NNE 08:01:46 10° NNE visible
22 Jul -1.6 03:53:33 10° W 03:56:33 30° NNW 03:59:34 10° NNE visible
23 Jul -0.5 04:43:02 10° NW 04:44:28 12° NNW 04:45:54 10° N visible
24 Jul -0.8 03:52:43 10° WNW 03:54:53 16° NNW 03:57:04 10° NNE visible
24 Jul -0.4 07:09:13 10° N 07:10:01 12° N 07:10:01 12° N visible
26 Jul -0.4 03:52:47 10° NNW 03:53:21 10° NNW 03:53:56 10° N visible
26 Jul -0.4 07:06:28 10° NNW 07:07:00 13° NNW 07:07:00 13° NNW visible
27 Jul -0.9 06:17:28 10° NNW 06:19:08 15° NNE 06:19:08 15° NNE visible
28 Jul -0.9 05:28:38 10° N 05:29:52 12° NNE 05:31:07 10° NE visible
28 Jul -0.3 07:04:00 10° NW 07:04:07 11° NW 07:04:07 11° NW visible
